Location: ????????
(55.8351°N, 38.7040°E)
Time: 13:10:16
(UTC+00:00)

Cosmos 1766 - Pass Details

Date: 14 April 2024
Orbit: 487 x 504 km, 82.5° (Epoch: 23 May)

Event Time Altitude Azimuth Distance (km) Brightness Sun altitude
Rises 01:18:24 0° 349° (NNW) 2,588 7.0 -8.9°
Reaches altitude 10° 01:20:32 10° 351° (N) 1,698 6.1 -8.6°
Maximum altitude 01:24:15 73° 77° (ENE) 519 3.4 -8.2°
Drops below altitude 10° 01:27:54 10° 162° (SSE) 1,676 5.7 -7.7°
Sets 01:30:00 0° 165° (SSE) 2,551 6.6 -7.5°
